Home > Weather > Gross-Gerau > Past weeks

Flag for Germany Past Weather in Gross-Gerau, Hesse, Germany — Yesterday and Last 2 Weeks

Now
68 °F

Clear.


Feels Like: 68 °F
Forecast: 62 / 77 °F
Wind: 5 mph from Northwest

Location: Frankfurt-M-Flughafen Airport

Current Time: Jul 26, 2016 at 12:05:42 AM

Latest Report: Jul 25, 2016 at 11:20 PM


Visibility: 10 mi

Pressure: 30.09 "Hg

Humidity: 83%

Dew Point: 63 °F

Location of Gross-GerauLocation

Past Weather in Gross-Gerau — Graph

°F

Gross-Gerau Temperature Yesterday

Maximum temperature yesterday: 82 °F (at 1:50 PM)
Minimum temperature yesterday: 66 °F (at 2:50 AM)
Average temperature yesterday: 74 °F

High & Low Weather Summary for the Past Weeks

 TemperatureHumidityPressure
High95 °F (Jul 20, 2:50 PM)100% (Jul 22, 4:50 AM)30.30 "Hg (Jul 22, 4:50 AM)
Low50 °F (Jul 16, 2:50 AM)22% (Jul 20, 6:20 PM)29.80 "Hg (Jul 10, 10:20 PM)
Average70 °F67%30.06 "Hg
* Reported Jul 10 10:20 PM — Jul 25 10:50 PM, Gross-Gerau, Weather by CustomWeather, © 2016

Note: Actual official high and low records may vary slightly from our data, if they occured in-between our weather recording intervals... More about our weather records

Advertising

Gross-Gerau Weather History for the Previous 24 Hours

Scroll right to see more
 ConditionsComfort  
Time TempWeatherWind HumidityBarometerVisibility
10:50 PM
Mon, Jul 25
72 °FPassing clouds.7 mph69%30.09 "HgN/A
10:20 PM72 °FClear.5 mph69%30.09 "Hg10 mi
9:50 PM72 °FSunny.6 mph73%30.09 "Hg10 mi
9:20 PM75 °FPassing clouds.7 mph61%30.07 "HgN/A
8:50 PM79 °FSunny.7 mph54%30.07 "Hg10 mi
8:20 PM81 °FPassing clouds.9 mph48%30.07 "HgN/A
7:50 PM81 °FSunny.10 mph48%30.07 "Hg10 mi
7:20 PM82 °FPassing clouds.8 mph45%30.07 "HgN/A
6:50 PM82 °FPassing clouds.12 mph45%30.07 "HgN/A
6:20 PM82 °FPassing clouds.7 mph45%30.04 "HgN/A
5:50 PM82 °FPassing clouds.9 mph45%30.07 "HgN/A
5:20 PM82 °FPassing clouds.7 mph48%30.07 "HgN/A
4:50 PM82 °FPassing clouds.7 mph48%30.07 "HgN/A
4:20 PM82 °FScattered clouds.9 mph48%30.07 "HgN/A
3:50 PM82 °FPartly sunny.9 mph51%30.07 "HgN/A
3:20 PM82 °FPartly sunny.9 mph51%30.07 "HgN/A
2:50 PM82 °FPartly sunny.10 mph51%30.07 "HgN/A
2:20 PM81 °FBroken clouds.7 mph54%30.07 "HgN/A
1:50 PM82 °FBroken clouds.8 mph51%30.07 "HgN/A
1:20 PM79 °FBroken clouds.10 mph54%30.07 "HgN/A
12:50 PM81 °FPartly sunny.6 mph54%30.07 "HgN/A
12:20 PM79 °FPartly sunny.5 mph65%30.07 "HgN/A
11:50 AM79 °FPartly sunny.5 mph65%30.07 "HgN/A
11:20 AM77 °FBroken clouds.2 mph69%30.07 "HgN/A
10:50 AM75 °FBroken clouds.2 mph74%30.09 "HgN/A
10:20 AM73 °FPartly sunny.5 mph74%30.07 "HgN/A
9:50 AM73 °FBroken clouds.5 mph74%30.07 "HgN/A
9:20 AM72 °FBroken clouds.7 mph78%30.09 "HgN/A
8:50 AM70 °FBroken clouds.5 mph88%30.07 "HgN/A
8:20 AM70 °FPartly sunny.5 mph83%30.07 "HgN/A
7:50 AM68 °FPartly sunny.5 mph94%30.07 "HgN/A
7:20 AM66 °FFog.3 mph94%30.07 "HgN/A
6:50 AM66 °FFog.2 mph100%30.07 "HgN/A
6:20 AM66 °FFog.2 mph100%30.07 "HgN/A
5:50 AM66 °FClear.3 mph100%30.07 "Hg10 mi
5:20 AM66 °FClear.3 mph100%30.07 "Hg10 mi
4:50 AM66 °FFog.3 mph100%30.07 "HgN/A
4:20 AM66 °FFog.1 mph100%30.07 "HgN/A
3:50 AM66 °FClear.3 mph100%30.07 "Hg10 mi
3:20 AM68 °FFog.1 mph94%30.07 "HgN/A
2:50 AM66 °FFog.3 mph100%30.07 "HgN/A
2:20 AM68 °FLight fog.2 mph94%30.07 "HgN/A
1:50 AM68 °FLight fog.3 mph94%30.07 "HgN/A
1:20 AM68 °FLight fog.2 mph94%30.07 "HgN/A
12:50 AM68 °FClear.No wind94%30.07 "Hg10 mi
12:20 AM68 °FClear.2 mph100%30.07 "Hg10 mi
Weather by CustomWeather, © 2016

See weather overviewHow to use our weather pages